Tracking 30995 objects as of 5-Jul-2025
HD Live streaming from Space Station
objects crossing your sky now

METEOR 2-8 DEB

Track METEOR 2-8 DEB now!
10-day predictions


NORAD ID: 36346
Int'l Code: 1982-025AG
Perigee: 794.4 km
Apogee: 796.2 km
Inclination: 82.5 °
Period: 100.6 minutes
Semi major axis: 7166 km
RCS: 0.0065 m2 (small)
Launch date: March 25, 1982
Source: Commonwealth of Independent States (former USSR) (CIS)
Launch site: PLESETSK MISSILE AND SPACE COMPLEX (PKMTR)

Note: This is SATELLITE DEBRIS
Your satellite tracking list
COSMOS 1610
Track 1 satellite(s)




NASA's NSSDC Master Catalog

Two Line Element Set (TLE):
1 36346U 82025AG  25183.52712895  .00004142  00000-0  15664-2 0  9992
2 36346  82.5395 120.4116 0001211 280.2531  79.8519 14.31073611 84689
Source of the keplerian elements: AFSPC